User: anonymous
Location: Bridgewater
(44.3670°N, 64.5170°W)
Time: 05:45:14
(UTC-03:00)
Language:

OPAL - Orbit

View from above orbital plane
View from above orbital plane
View from above satellite
View from above satellite

Ground track
Ground track

The orbit data is extracted from the following two-line orbital elements,

1 26063U 00004C   14105.81479846  .00000207  00000-0  90256-4 0  9400
2 26063 100.2017 240.4692 0036083 334.6637 025.2773 14.36340744745063
Epoch (UTC): 15 April 2014 19:33:18
Eccentricity: 0.0036083
inclination: 100.2017°
perigee height: 745 km
apogee height: 796 km
right ascension of ascending node: 240.4692°
argument of perigee: 334.6637°
revolutions per day: 14.36340744
mean anomaly at epoch: 25.2773°
orbit number at epoch: 74506

The dashed part of the orbit path shows where the satellite is in the earth's shadow,  

DLR